Tracking 18852 objects as of 23-Nov-2017
HD Live streaming from Space Station
objects crossing your sky now

RADUGA 2

Track RADUGA 2 now!
RADUGA 2 is classified as:


NORAD ID: 9416
Int'l Code: 1976-092A
Perigee: 35,664.3 km
Apogee: 35,928.1 km
Inclination: 10.8 °
Period: 1,436.2 minutes
Semi major axis: 42167 km
RCS: 0.1428 m2 (medium)
Launch date: September 11, 1976
Source: Commonwealth of Independent States (former USSR) (CIS)
Launch site: TYURATAM MISSILE AND SPACE COMPLEX (TTMTR)
aabbcc
Your satellite tracking list
Your tracking list is empty




NASA's NSSDC Master Catalog

Two Line Element Set (TLE):
1  9416U 76092A   17326.52220000 +.00000006 +00000-0 +00000-0 0  9990
2  9416 010.8404 312.1544 0031281 305.0578 056.6467 01.00263172097970
Source of the keplerian elements: AFSPC